This is the latest recevied weather packets stored in our database for station/object AI5KP-13. If no packets are shown the sender has not sent any weather packets the latest 10 day(s).
| Time | Temp. | Humidity | Pressure | Rain* | Wind** | Luminosity | Snow |
|---|---|---|---|---|---|---|---|
| 1777737027 | 16.67° C | 52% | 1020.6 hPa | 0 mm | - | 605 W/m² | - |
| 1777736722 | 16.67° C | 55% | 1020.7 hPa | 0 mm | - | 590 W/m² | - |
| 1777736083 | 16.67° C | 49% | 1020.6 hPa | 0 mm | - | 569 W/m² | - |
| 1777735780 | 17.78° C | 53% | 1020.6 hPa | 0 mm | - | 559 W/m² | - |
| 1777735478 | 16.67° C | 53% | 1020.6 hPa | 0 mm | - | 547 W/m² | - |
| 1777735175 | 17.22° C | 56% | 1020.5 hPa | 0 mm | - | 535 W/m² | - |
| 1777734872 | 17.22° C | 52% | 1020.4 hPa | 0 mm | - | 523 W/m² | - |
| 1777734569 | 16.67° C | 54% | 1020.6 hPa | 0 mm | - | 509 W/m² | - |
| 1777734266 | 16.67° C | 58% | 1020.5 hPa | 0 mm | - | 495 W/m² | - |
| 1777733962 | 16.11° C | 58% | 1020.8 hPa | 0 mm | - | 483 W/m² | - |
| 1777733659 | 15.56° C | 63% | 1020.7 hPa | 0 mm | - | 467 W/m² | - |
| 1777733355 | 15.56° C | 61% | 1020.4 hPa | 0 mm | - | 452 W/m² | - |
| 1777733053 | 16.11° C | 60% | 1020.6 hPa | 0 mm | - | 439 W/m² | - |
| 1777732748 | 15.56° C | 62% | 1020.4 hPa | 0 mm | - | 426 W/m² | - |
| 1777732446 | 15.56° C | 65% | 1020.4 hPa | 0 mm | - | 411 W/m² | - |
| 1777732143 | 15° C | 67% | 1020.4 hPa | 0 mm | - | 396 W/m² | - |
| 1777731840 | 15° C | 66% | 1020.6 hPa | 0 mm | - | 381 W/m² | - |
| 1777731536 | 14.44° C | 70% | 1020.5 hPa | 0 mm | - | 367 W/m² | - |
| 1777731235 | 15° C | 68% | 1020.4 hPa | 0 mm | - | 351 W/m² | - |
| 1777730932 | 15° C | 68% | 1020.6 hPa | 0 mm | - | 336 W/m² | - |
| 1777730630 | 13.89° C | 71% | 1020.4 hPa | 0 mm | - | 322 W/m² | - |
| 1777730326 | 13.89° C | 70% | 1020.3 hPa | 0 mm | - | 308 W/m² | - |
| 1777730022 | 13.33° C | 71% | 1020.1 hPa | 0 mm | - | 291 W/m² | - |
| 1777729718 | 12.78° C | 76% | 1020.2 hPa | 0 mm | - | 276 W/m² | - |
| 1777729416 | 12.22° C | 75% | 1020.2 hPa | 0 mm | - | 259 W/m² | - |
* Rain latest hour (hover to see other rain measurements)
** Current wind speed in m/s (hover to see current wind gust speed)